Location: Bidwell Hollow
(37.7387°N, 90.1707°W)
Time: 02:02:18
(UTC+00:00)

S-56A Canister/Altair - All Passes

Search period start: 14 May 2026 00:00
Search period end: 24 May 2026 00:00
Orbit: 633 x 2484 km, 38.9° (Epoch: 13 May)

Date Brightness Start Highest point End Pass type
(mag) Time Alt. Az. Time Alt. Az. Time Alt. Az.
14 May - 00:55:37 10° S 00:58:39 16° SSE 01:01:29 10° ESE daylight
14 May - 02:57:11 10° WSW 03:01:36 65° SSE 03:06:18 10° E visible
14 May - 05:00:31 10° W 05:05:05 78° N 05:10:58 10° E visible
14 May - 07:03:34 10° W 07:08:49 65° SSW 07:16:26 10° ESE visible
14 May - 09:07:21 10° W 09:12:48 26° SSW 09:20:08 10° SSE visible
15 May - 00:21:20 10° S 00:23:52 14° SSE 00:26:13 10° ESE daylight
15 May - 02:22:23 10° WSW 02:26:53 56° SSE 02:31:21 10° E visible
15 May - 04:25:49 10° W 04:30:16 77° N 04:35:41 10° E visible
15 May - 06:28:57 10° W 06:33:55 71° SSW 06:40:56 10° ESE visible
15 May - 08:32:32 10° W 08:37:44 28° SSW 08:44:52 10° SSE visible
15 May - 23:47:16 10° SSE 23:49:04 12° SSE 23:50:44 10° SE daylight
16 May - 01:47:33 10° SW 01:52:11 48° SSE 01:56:27 10° E visible
16 May - 03:51:03 10° W 03:55:29 78° N 04:00:30 10° E visible
16 May - 05:54:20 10° W 05:59:04 77° SSW 06:05:30 10° ESE visible
16 May - 07:57:45 10° W 08:02:45 31° SSW 08:09:37 10° SSE visible
17 May - 01:12:40 10° SW 01:17:27 41° SSE 01:21:37 10° E daylight
17 May - 03:16:14 10° W 03:20:42 81° N 03:25:27 10° E visible
17 May - 05:19:41 10° W 05:24:14 84° SSW 05:30:08 10° ESE visible
17 May - 07:23:00 10° W 07:27:49 34° SSW 07:34:22 10° SE visible
18 May - 00:37:45 10° SW 00:42:41 36° SSE 00:46:50 10° E daylight
18 May - 02:41:20 10° W 02:45:57 86° N 02:50:30 10° E visible
18 May - 04:44:59 10° W 04:49:27 90° NNW 04:54:53 10° ESE visible
18 May - 06:48:17 10° W 06:52:55 37° SSW 06:59:08 10° SE night (unlit)
18 May - 08:55:21 10° SW 08:56:43 11° SW 08:58:09 10° SSW visible
19 May - 00:02:46 10° SW 00:07:55 31° SSE 00:12:03 10° E daylight
19 May - 02:06:20 10° WSW 02:11:12 88° SSE 02:15:39 10° E visible
19 May - 04:10:15 10° W 04:14:41 84° N 04:19:44 10° E visible
19 May - 06:13:36 10° W 06:18:05 41° SSW 06:23:56 10° SE night (unlit)
19 May - 08:19:26 10° SW 08:21:43 12° SSW 08:24:16 10° SSW night (unlit)
19 May - 23:27:46 10° SSW 23:33:05 28° SSE 23:37:16 10° E daylight
20 May - 01:31:16 10° WSW 01:36:26 80° SSE 01:40:52 10° E visible
20 May - 03:35:26 10° W 03:39:55 80° N 03:44:40 10° E visible
20 May - 05:38:53 10° W 05:43:17 46° SSW 05:48:48 10° SE visible
20 May - 07:44:02 10° WSW 07:46:46 14° SSW 07:49:54 10° S night (unlit)
20 May - 22:52:45 10° SSW 22:58:13 25° SSE 23:02:28 10° E daylight
21 May - 00:56:07 10° WSW 01:01:40 73° SSE 01:06:09 10° E daylight
21 May - 03:00:32 10° W 03:05:09 77° N 03:09:42 10° E visible
21 May - 05:04:10 10° W 05:08:30 53° SSW 05:13:43 10° SE visible
21 May - 07:08:51 10° WSW 07:11:51 15° SSW 07:15:22 10° S night (unlit)
21 May - 22:17:43 10° SSW 22:23:19 23° SSE 22:27:39 10° E daylight
22 May - 00:20:53 10° WSW 00:26:53 65° SSE 00:31:28 10° E daylight
22 May - 02:25:32 10° W 02:30:23 76° N 02:34:49 10° E visible
22 May - 04:29:24 10° W 04:33:46 60° SSW 04:38:42 10° ESE visible
22 May - 06:33:47 10° WSW 06:37:00 17° SSW 06:40:45 10° S night (unlit)
22 May - 21:42:42 10° SSW 21:48:21 21° SSE 21:52:45 10° ESE daylight
22 May - 23:45:34 10° WSW 23:52:04 59° SSE 23:56:49 10° E daylight
23 May - 01:50:25 10° W 01:55:36 77° N 02:00:01 10° E visible
23 May - 03:54:34 10° W 03:59:01 69° SSW 04:03:44 10° ESE visible
23 May - 05:58:48 10° WSW 06:02:10 20° SSW 06:06:05 10° SSE night (unlit)
23 May - 21:07:42 10° S 21:13:20 19° SSE 21:17:47 10° ESE daylight
23 May - 23:10:11 10° SW 23:17:12 53° SSE 23:22:10 10° E daylight
